Regional Weather Roundup
Issued by NWS

Home | Current Version | Previous Version | Text Only | Print | Product List | Glossary Off
Versions: 1 2 3 4 5 6 7 8 9 10 11 12 13 14 15 16 17 18 19 20 21 22 23 24 25 26 27 28 29 30 31 32 33 34 35 36 37 38 39 40 41 42 43 44 45 46 47 48 49 50

823
ASUS43 KLSX 261410
RWRMO

WEATHER SUMMARY FOR MISSOURI
NATIONAL WEATHER SERVICE SPRINGFIELD MO
900 AM CDT SAT MAY 26 2018

NOTE: "FAIR" INDICATES FEW OR NO CLOUDS BELOW 12,000 FEET WITH NO
       SIGNIFICANT WEATHER AND/OR OBSTRUCTIONS TO VISIBILITY.
       CURRENT SKY AND/OR WEATHER CONDITIONS ARE NOT AVAILABLE FOR
       CHILLICOTHE AND FARMINGTON.

MOZ001>031-035>038-043-044-053-054-261500-
...NORTHERN AND WESTERN MISSOURI...

CITY           SKY/WX    TMP DP  RH WIND       PRES   REMARKS
KANSAS CTY INT MOSUNNY   78  68  71 W9        29.83S
KANSAS C DTWN  SUNNY     79  67  66 SW8       29.82S
LEE`S SUMMIT   MOSUNNY   77  68  73 SW9       29.85S
ST JOSEPH      SUNNY     80  68  66 SW10      29.81S
CHILLICOTHE      N/A     79  69  71 SW6       29.82S
KIRKSVILLE     MOSUNNY   77  69  76 S10       29.83S

$$
MOZ066>068-077>081-088>096-101>105-261500-
...SOUTHWEST MISSOURI...

CITY           SKY/WX    TMP DP  RH WIND       PRES   REMARKS
SPRINGFIELD    SUNNY     74  67  78 SE5       29.90R
JOPLIN         SUNNY     74  68  81 SW9       29.89S
BRANSON        MOSUNNY   72  68  88 CALM      29.93S

$$
MOZ032>034-039>042-045>050-055>058-069>072-261500-
...CENTRAL MISSOURI...

CITY           SKY/WX    TMP DP  RH WIND       PRES   REMARKS
COLUMBIA       SUNNY     77  70  79 SE6       29.87R
JEFFERSON CITY SUNNY     74  66  76 CALM      29.86S
ROLLA          MOSUNNY   73  66  78 VRB3      29.90R
SEDALIA        MOSUNNY   76  69  79 SW7       29.87R
WHITEMAN AFB   SUNNY     76  69  79 W7        29.82R
WARRENSBURG    MOSUNNY   77  68  73 SW6       29.85S
OSAGE BEACH    SUNNY     72  67  84 S6        29.89R

$$
MOZ051-052-059>065-261500-
...EAST CENTRAL MISSOURI...

CITY           SKY/WX    TMP DP  RH WIND       PRES   REMARKS
ST LOUIS INTL  PTSUNNY   77  70  79 VRB3      29.87R
SPIRIT OF STL  MOSUNNY   76  70  82 VRB3      29.86R
ST CHARLES     MOSUNNY   76  69  79 SW6       29.84F

$$
MOZ072>076-082>087-097>100-106>115-261500-
...SOUTH CENTRAL AND SOUTHEAST MISSOURI...

CITY           SKY/WX    TMP DP  RH WIND       PRES   REMARKS
CAPE GIRARDEAU FAIR      75  69  81 W5        29.88S
FARMINGTON     SUNNY     77  67  71 W3        29.90F
POPLAR BLUFF   FAIR      74  71  91 CALM      29.88S
WEST PLAINS    CLOUDY    73  67  81 CALM      29.92R

$$




USA.gov is the U.S. government's official web portal to all federal, state and local government web resources and services.